Newark, NJ

5:46 PM EDT on October 20, 2019 (GMT -0400)
Newark International

Weather History for KEWR - May, 2019

Change the Weather History Date:

Friday, May 31, 2019

  Actual Average Record
Temperature  
Mean Temperature 73 °F 68 °F  
Max Temperature 82 °F 77 °F 96 °F (1987)
Min Temperature 63 °F 58 °F 44 °F (1938)
Degree Days  
Heating Degree Days 0 2  
Month to date heating degree days 107 136  
Since 1 July heating degree days 4701 4855  
Cooling Degree Days 8 4  
Month to date cooling degree days 70 64  
Year to date cooling degree days 85 76  
Growing Degree Days 23 (Base 50)    
Moisture  
Dew Point 60 °F    
Average Humidity 67    
Maximum Humidity 100    
Minimum Humidity 40    
Precipitation  
Precipitation T in 0.14 in 3.73 in (2015)
Month to date precipitation 7.31 4.09  
Year to date precipitation 22.96 18.89  
Snow  
Snow 0.00 in 0.00 in T in (2015)
Month to date snowfall 0.0 0.0  
Since 1 July snowfall 22.0 28.5  
Snow Depth 0.00 in    
Sea Level Pressure  
Sea Level Pressure 29.74 in    
Wind  
Wind Speed 6 mph ()    
Max Wind Speed 16 mph    
Max Gust Speed 20 mph    
Visibility 9.1 miles    
Events Rain    
T = Trace of Precipitation, MM = Missing Value Source: Averaged Metar Reports

Daily Weather History Graph

Daily Weather History Graph

Search for Another Location

Airport or City:

Astronomy

May. 31, 2019 Rise Set
Actual Time 5:28 AM EDT 8:20 PM EDT
Civil Twilight 4:55 AM EDT 8:53 PM EDT
Nautical Twilight 4:14 AM EDT 9:34 PM EDT
Astronomical Twilight 3:27 AM EDT 10:21 PM EDT
Moon 4:02 AM EDT (5/31) 5:26 PM EDT (5/31)
Length of Visible Light 15h 57m
Length of Day
14h 52m
Waning Crescent, 9% of the Moon is Illuminated
May 31
Waning Crescent
Jun 3
New
Jun 10
First Quarter
Jun 17
Full
Jun 25
Last Quarter

Hourly Weather History & Observations

Time (EDT) Temp. Heat Index Dew Point Humidity Pressure Visibility Wind Dir Wind Speed Gust Speed Precip Events Conditions
12:36 AM 64.9 °F - 64.0 °F 97% 29.67 in 5.0 mi NW 4.6 mph - 0.09 in Rain Light Rain
12:51 AM 64.9 °F - 64.0 °F 97% 29.66 in 5.0 mi WSW 3.5 mph - 0.10 in Rain Light Rain
1:13 AM 64.9 °F - 64.0 °F 97% 29.64 in 5.0 mi South 3.5 mph - 0.00 in Rain Light Rain
1:51 AM 66.0 °F - 64.0 °F 93% 29.67 in 6.0 mi West 9.2 mph - 0.00 in   Overcast
2:22 AM 66.0 °F - 64.9 °F 96% 29.66 in 7.0 mi West 4.6 mph - N/A   Mostly Cloudy
2:51 AM 64.9 °F - 64.0 °F 97% 29.66 in 9.0 mi WNW 6.9 mph - N/A   Scattered Clouds
3:51 AM 64.0 °F - 63.0 °F 96% 29.66 in 9.0 mi West 5.8 mph - N/A   Partly Cloudy
4:51 AM 64.0 °F - 62.1 °F 93% 29.68 in 10.0 mi West 4.6 mph - N/A   Partly Cloudy
5:51 AM 64.0 °F - 62.1 °F 93% 29.71 in 10.0 mi West 6.9 mph - N/A   Partly Cloudy
6:51 AM 66.2 °F - 62.6 °F 88% 29.73 in 10.0 mi WNW 9.2 mph - N/A   Partly Cloudy
7:51 AM 69.1 °F - 63.0 °F 81% 29.74 in 10.0 mi West 5.8 mph - N/A   Partly Cloudy
8:51 AM 72.0 °F - 62.1 °F 71% 29.75 in 10.0 mi WNW 8.1 mph 16.1 mph N/A   Partly Cloudy
9:51 AM 73.9 °F - 60.1 °F 62% 29.77 in 10.0 mi NW 11.5 mph - N/A   Partly Cloudy
10:51 AM 75.9 °F - 59.0 °F 56% 29.78 in 10.0 mi NW 13.8 mph 19.6 mph N/A   Scattered Clouds
11:51 AM 78.1 °F - 57.9 °F 50% 29.79 in 10.0 mi WNW 6.9 mph - N/A   Scattered Clouds
12:51 PM 80.1 °F 80.6 °F 57.9 °F 47% 29.79 in 10.0 mi NW 9.2 mph - N/A   Scattered Clouds
1:51 PM 80.1 °F 80.4 °F 57.0 °F 45% 29.77 in 10.0 mi West 8.1 mph - N/A   Scattered Clouds
2:21 PM 80.1 °F 80.6 °F 57.9 °F 47% 29.77 in 10.0 mi SW 4.6 mph - N/A   Scattered Clouds
2:51 PM 81.0 °F 80.8 °F 55.9 °F 42% 29.76 in 10.0 mi Variable 4.6 mph - N/A   Scattered Clouds
3:51 PM 82.0 °F 81.6 °F 55.9 °F 41% 29.75 in 10.0 mi West 10.4 mph 18.4 mph N/A   Scattered Clouds
4:51 PM 81.0 °F 80.8 °F 55.9 °F 42% 29.75 in 10.0 mi West 11.5 mph 18.4 mph N/A   Scattered Clouds
5:51 PM 80.1 °F 80.2 °F 55.9 °F 43% 29.75 in 10.0 mi WNW 12.7 mph - N/A   Scattered Clouds
6:51 PM 80.1 °F 80.1 °F 55.0 °F 42% 29.75 in 10.0 mi West 12.7 mph - N/A   Scattered Clouds
7:51 PM 78.1 °F - 55.0 °F 45% 29.77 in 10.0 mi West 9.2 mph - N/A   Scattered Clouds
8:51 PM 75.9 °F - 55.9 °F 50% 29.78 in 10.0 mi West 9.2 mph - N/A   Scattered Clouds
9:51 PM 75.0 °F - 57.0 °F 53% 29.80 in 10.0 mi West 9.2 mph - N/A   Partly Cloudy
10:51 PM 73.0 °F - 57.0 °F 57% 29.79 in 10.0 mi West 6.9 mph - N/A   Partly Cloudy
11:51 PM 71.1 °F - 57.9 °F 63% 29.80 in 10.0 mi West 6.9 mph - N/A   Partly Cloudy